Date String (YYYY-MM-DD hh:mm:ss) UTC,Instrument flags,Ambient pressure (hPa),Sample flow (lpm),Bypass flow (lpm),Sample temperature (°C),Ambient temperature (°C),ASC tube jacket temperature (°C),LED temperature (°C),Box temperature (°C),Sample RH (%),Span deviation,Mass concentration (μg/m³),Mass concentration (μg/m³),Mass concentration (μg/m³)
DateTimeUTC,F1_M11,P_M11,Q1_M11,Q2_M11,T1_M11,T2_M11,T3_M11,T4_M11,T5_M11,U1_M11,ZSPAN_M11,X0_M11,X2_M11,X1_M11
2022-02-25 10:00:00,,0827.5,5.01,0.00,22.6,22.8,00.0,31.4,24.4,05.9,-000.1,0014.58,0009.60,0009.03
2022-02-25 10:01:00,,0827.5,5.00,0.00,22.6,22.5,00.0,31.4,24.4,06.0,0000.1,0014.02,0009.57,0008.97
2022-02-25 10:02:00,,0827.6,5.00,0.00,22.5,22.2,00.0,31.4,24.3,06.0,0000.0,0013.96,0009.53,0008.91
2022-02-25 10:03:00,,0827.5,4.99,0.00,22.5,22.0,00.0,31.4,24.2,06.0,0000.1,0014.07,0009.49,0008.86
2022-02-25 10:04:00,,0827.5,5.01,0.00,22.4,21.8,00.0,31.4,24.1,06.0,0000.2,0014.11,0009.46,0008.82
2022-02-25 10:05:00,,0827.5,5.00,0.00,22.4,21.7,00.0,31.4,24.0,05.9,0000.8,0014.23,0009.45,0008.79
2022-02-25 10:06:00,,0827.5,4.98,0.00,22.3,21.5,00.0,31.4,23.9,05.9,0000.7,0014.56,0009.44,0008.77
2022-02-25 10:07:00,,0827.5,5.00,0.00,22.3,21.5,00.0,31.4,23.9,05.9,0000.4,0014.27,0009.39,0008.74
2022-02-25 10:08:00,,0827.5,5.01,0.00,22.3,22.1,00.0,31.4,24.0,05.9,0000.4,0014.08,0009.37,0008.72
2022-02-25 10:09:00,,0827.5,5.00,0.00,22.4,22.8,00.0,31.4,24.3,05.9,0000.1,0014.03,0009.33,0008.68
2022-02-25 10:10:00,,0827.5,5.00,0.00,22.6,23.1,00.0,31.4,24.4,05.9,-000.3,0014.15,0009.31,0008.67
2022-02-25 10:11:00,,0827.5,4.99,0.00,22.6,22.8,00.0,31.4,24.4,05.9,-000.2,0014.16,0009.30,0008.67
2022-02-25 10:12:00,,0827.5,5.00,0.00,22.6,22.6,00.0,31.4,24.3,05.9,-000.6,0013.98,0009.30,0008.68
2022-02-25 10:13:00,,0827.5,5.00,0.00,22.5,22.3,00.0,31.4,24.2,05.9,-000.8,0013.99,0009.31,0008.70
2022-02-25 10:14:00,,0827.5,5.00,0.00,22.5,22.0,00.0,31.4,24.1,05.9,-000.8,0013.82,0009.32,0008.71
2022-02-25 10:15:00,,0827.5,4.99,0.00,22.4,21.8,00.0,31.4,24.1,05.9,-000.6,0014.07,0009.29,0008.69
2022-02-25 10:16:00,,0827.5,5.00,0.00,22.4,21.7,00.0,31.4,24.0,05.9,-000.8,0014.73,0009.33,0008.70
2022-02-25 10:17:00,,0827.5,5.01,0.00,22.3,21.5,00.0,31.4,23.9,05.9,-000.6,0014.75,0009.36,0008.71
2022-02-25 10:18:00,,0827.5,5.01,0.00,22.2,21.4,00.0,31.3,23.9,05.9,-000.9,0014.81,0009.36,0008.70
2022-02-25 10:19:00,,0827.5,5.00,0.00,22.3,21.9,00.0,31.3,23.9,05.9,-000.8,0014.95,0009.37,0008.70
2022-02-25 10:20:00,,0827.6,5.00,0.00,22.4,22.6,00.0,31.4,24.2,05.8,-000.5,0015.10,0009.36,0008.70
2022-02-25 10:21:00,,0827.5,5.00,0.00,22.5,23.1,00.0,31.4,24.4,05.8,-000.5,0015.26,0009.38,0008.70
2022-02-25 10:22:00,,0827.5,5.00,0.00,22.6,22.9,00.0,31.4,24.4,05.7,-000.7,0015.12,0009.36,0008.71
2022-02-25 10:23:00,,0827.5,5.00,0.00,22.5,22.6,00.0,31.4,24.3,05.8,-000.3,0015.30,0009.35,0008.72
2022-02-25 10:24:00,,0827.5,5.00,0.00,22.5,22.3,00.0,31.4,24.3,05.8,0000.1,0015.43,0009.36,0008.72
2022-02-25 10:25:00,,0827.5,5.01,0.00,22.4,22.1,00.0,31.4,24.2,05.8,0000.2,0015.40,0009.37,0008.73
2022-02-25 10:26:00,,0827.5,5.00,0.00,22.4,21.9,00.0,31.4,24.1,05.8,-000.1,0014.98,0009.38,0008.75
2022-02-25 10:27:00,,0827.6,5.00,0.00,22.3,21.7,00.0,31.4,24.0,05.9,0000.1,0014.32,0009.34,0008.73
2022-02-25 10:28:00,,0827.5,4.99,0.00,22.3,21.5,00.0,31.4,23.9,05.9,0000.3,0014.14,0009.39,0008.77
2022-02-25 10:29:00,,0827.6,5.00,0.00,22.2,21.4,00.0,31.3,23.9,05.9,0000.3,0014.13,0009.43,0008.82
2022-02-25 10:30:00,,0827.6,5.00,0.00,22.2,21.7,00.0,31.3,23.9,06.0,0000.2,0014.13,0009.47,0008.85
2022-02-25 10:31:00,,0827.6,5.00,0.00,22.3,22.5,00.0,31.4,24.1,05.9,0000.1,0013.93,0009.48,0008.87
2022-02-25 10:32:00,,0827.6,5.01,0.00,22.5,23.0,00.0,31.4,24.3,05.9,0000.6,0013.76,0009.53,0008.90
2022-02-25 10:33:00,,0827.6,5.00,0.00,22.5,22.9,00.0,31.4,24.4,05.9,0001.0,0013.95,0009.54,0008.92
2022-02-25 10:34:00,,0827.6,5.01,0.00,22.5,22.6,00.0,31.4,24.3,05.9,0000.9,0013.89,0009.58,0008.95
2022-02-25 10:35:00,,0827.6,4.99,0.00,22.5,22.3,00.0,31.4,24.2,05.9,0000.7,0013.81,0009.63,0008.99
2022-02-25 10:36:00,,0827.7,5.00,0.00,22.4,22.0,00.0,31.4,24.1,05.9,0000.6,0014.00,0009.72,0009.04
2022-02-25 10:37:00,,0827.6,5.02,0.00,22.4,21.7,00.0,31.4,24.1,05.9,0000.5,0014.07,0009.78,0009.10
2022-02-25 10:38:00,,0827.6,5.00,0.00,22.3,21.5,00.0,31.4,24.0,06.0,0000.3,0014.06,0009.82,0009.16
2022-02-25 10:39:00,,0827.7,4.99,0.00,22.3,21.4,00.0,31.3,23.9,06.0,-000.0,0014.20,0009.78,0009.15
2022-02-25 10:40:00,,0827.7,5.00,0.00,22.2,21.3,00.0,31.3,23.8,05.9,0000.2,0014.64,0009.79,0009.15
2022-02-25 10:41:00,,0827.7,5.01,0.00,22.2,21.5,00.0,31.3,23.8,05.9,0000.3,0014.60,0009.79,0009.16
2022-02-25 10:42:00,,0827.7,5.00,0.00,22.3,22.1,00.0,31.3,24.0,05.8,0000.3,0015.05,0009.83,0009.19
2022-02-25 10:43:00,,0827.7,5.00,0.00,22.4,22.9,00.0,31.3,24.2,05.8,-000.2,0015.82,0009.85,0009.24
2022-02-25 10:44:00,,0827.7,5.01,0.00,22.5,23.3,00.0,31.4,24.4,05.7,-000.3,0016.08,0009.88,0009.28
2022-02-25 10:45:00,,0827.7,5.00,0.00,22.5,23.0,00.0,31.4,24.4,05.7,0000.0,0016.12,0009.92,0009.29
2022-02-25 10:46:00,,0827.7,4.99,0.00,22.5,22.6,00.0,31.4,24.3,05.8,0000.1,0016.46,0009.91,0009.28
2022-02-25 10:47:00,,0827.7,5.00,0.00,22.5,22.3,00.0,31.4,24.2,05.8,0000.2,0016.46,0009.88,0009.31
2022-02-25 10:48:00,,0827.7,5.00,0.00,22.4,21.9,00.0,31.4,24.2,05.8,0000.1,0016.47,0009.88,0009.31
2022-02-25 10:49:00,,0827.7,5.00,0.00,22.4,21.7,00.0,31.4,24.1,05.8,0000.3,0016.50,0009.90,0009.31
2022-02-25 10:50:00,,0827.8,4.99,0.00,22.3,21.5,00.0,31.3,24.0,05.8,0000.2,0016.37,0009.92,0009.34
2022-02-25 10:51:00,,0827.8,5.00,0.00,22.3,21.4,00.0,31.3,24.0,05.8,0000.2,0016.33,0009.94,0009.38
2022-02-25 10:52:00,,0827.8,5.00,0.00,22.2,21.3,00.0,31.3,23.9,05.8,0000.3,0016.56,0009.98,0009.41
2022-02-25 10:53:00,,0827.8,5.01,0.00,22.2,21.3,00.0,31.3,23.9,05.8,0000.3,0016.07,0009.97,0009.44
2022-02-25 10:54:00,,0827.8,5.01,0.00,22.3,22.0,00.0,31.3,24.0,05.7,0000.8,0015.30,0009.99,0009.46
2022-02-25 10:55:00,,0827.9,5.00,0.00,22.4,22.7,00.0,31.3,24.2,05.7,0000.9,0015.11,0010.03,0009.49
2022-02-25 10:56:00,,0827.8,5.01,0.00,22.5,23.2,00.0,31.4,24.4,05.6,0000.4,0015.05,0010.06,0009.53
2022-02-25 10:57:00,,0827.9,4.99,0.00,22.6,23.0,00.0,31.4,24.5,05.6,0000.3,0014.72,0010.11,0009.56
2022-02-25 10:58:00,,0827.9,4.99,0.00,22.5,22.7,00.0,31.4,24.4,05.6,0000.3,0014.63,0010.09,0009.56
2022-02-25 10:59:00,,0827.8,5.01,0.00,22.5,22.4,00.0,31.4,24.3,05.5,0000.4,0016.79,0010.33,0009.61
